"Pseudo-MPEC" for P2210na

Created 2024 Nov 13 19:31:08 UT using Find_Orb

Click here for an explanation of pseudo-MPECs

 
 Astrometry: 
     P2210na  C2024 10 22.21193523 00 12.215+17 56 29.53   ~AM7l 22.51wXNEOCPF52
     P2210na  C2024 10 22.22464923 00 13.224+17 56 13.45   ~AM7l 22.43wXNEOCPF52
     P2210na* C2024 10 22.22531123 00 13.281+17 56 12.96   ~AM7H 22.04wXNEOCPF52
     P2210na  C2024 10 22.23731423 00 14.224+17 55 57.33   ~AM7l 22.31wXNEOCPF52
     P2210na  C2024 10 22.23797623 00 14.270+17 55 56.65   ~AM7H 22.72wXNEOCPF52
     P2210na  C2024 10 22.25063823 00 15.272+17 55 40.77   ~AM7H 22.27wXNEOCPF52
     P2210na KC2024 10 23.07978 23 01 25.75 +17 38 06.5    ~AN4l 21.7 RVNEOCP691
     P2210na KC2024 10 23.10046 23 01 27.40 +17 37 41.0    ~AN4l 22.3 RVNEOCP691
     P2210na KC2024 10 23.12115 23 01 29.11 +17 37 15.1    ~AN4l 22.4 RVNEOCP691

Station data:
(691) Steward Observatory, Kitt Peak - Spacewatch  (N31.962174 W111.600327)
   US/Arizona.  Observer J. V. Scotti. 0.9-m f/3 reflector + CCD.
(F52) Pan-STARRS 2, Haleakala  (N20.707382 W156.255910)  US/Hawaii.
   Observers J. Bulger, T. Dukes, T. Lowe, A. Schultz, M. Willman. Measurers
   K. Chambers, S. Chastel, T. de Boer, L. Denneau, J. Fairlamb, H.
   Flewelling, M. Huber, C.-C. Lin, E. Magnier, Y. Ramanjooloo, R. Wainscoat,
   R. Weryk. 1.8-m Ritchey-Chrétien + CCD.

Orbital elements:  P2210na
   Perihelion 2024 Jul 15.04748 +/- 44.9 TT =  1:08:22 (JD 2460506.54748)
Epoch 2024 Oct 23.0 TT = JDT 2460606.5   Earth MOID: 0.2098      AutoNEOCP
M  33.01544261 +/- 17               (J2000 ecliptic)
n   0.33031125 +/- 0.162            Peri.   55.61018 +/- 40
a   2.07262373 +/- 0.678            Node   242.39793 +/- 8
e   0.4425864 +/- 0.159             Incl.   12.30256 +/- 3.1
P   2.98388                H 21.28  G  0.15   U 11.5  SR
q 1.15530856 +/- 0.188    Q 2.98993890 +/- 2.76
From 9 observations 2024 Oct. 22-23 (21.8 hr); mean residual 0".17
Residuals in arcseconds: 
241022 F52  .10+  .15-    241022 F52  .03-  .16-    241023 691  .06-  .07-    
241022 F52  .05+  .12-    241022 F52  .12-  .00     241023 691  .30-  .10+    
241022 F52  .12+  .23+    241022 F52  .13-  .21+    241023 691  .40+  .07-    

Ephemerides (geocentric):
Date (UTC) HH   RA             Dec           delta  r     elong  mag " sig PA
---- --------  ------------   ------------  ------ ------ -----  --- --------
2024 11 13 20  23 33 50.088   +12 05 30.00  .86417 1.6530 126.1 23.3 2976  49
2024 11 13 21  23 33 53.971   +12 05 04.95  .86468 1.6532 126.0 23.3 2986  49
2024 11 13 22  23 33 57.853   +12 04 39.95  .86519 1.6535 126.0 23.3 2995  49
2024 11 13 23  23 34 01.736   +12 04 14.99  .86570 1.6537 126.0 23.3 3005  49
2024 11 14 00  23 34 05.620   +12 03 50.08  .86621 1.6539 126.0 23.3 3015  49
2024 11 14 01  23 34 09.504   +12 03 25.21  .86672 1.6542 125.9 23.3 3024  49
2024 11 14 02  23 34 13.388   +12 03 00.39  .86724 1.6544 125.9 23.3 3034  49
2024 11 14 03  23 34 17.273   +12 02 35.61  .86775 1.6547 125.9 23.3 3043  49
2024 11 14 04  23 34 21.158   +12 02 10.88  .86826 1.6549 125.9 23.3 3053  49
2024 11 14 05  23 34 25.044   +12 01 46.20  .86877 1.6552 125.8 23.3 3063  49
2024 11 14 06  23 34 28.930   +12 01 21.55  .86928 1.6554 125.8 23.3 3072  49
2024 11 14 07  23 34 32.817   +12 00 56.96  .86980 1.6557 125.8 23.3 3082  49
2024 11 14 08  23 34 36.704   +12 00 32.40  .87031 1.6559 125.7 23.3 3092  50
2024 11 14 09  23 34 40.591   +12 00 07.90  .87082 1.6562 125.7 23.4 3101  50
2024 11 14 10  23 34 44.479   +11 59 43.43  .87134 1.6564 125.7 23.4 3111  50
2024 11 14 11  23 34 48.368   +11 59 19.01  .87185 1.6566 125.7 23.4 3121  50
2024 11 14 12  23 34 52.257   +11 58 54.64  .87237 1.6569 125.6 23.4 3131  50
2024 11 14 13  23 34 56.146   +11 58 30.31  .87288 1.6571 125.6 23.4 3140  50
2024 11 14 14  23 35 00.036   +11 58 06.03  .87339 1.6574 125.6 23.4 3150  50
2024 11 14 15  23 35 03.926   +11 57 41.79  .87391 1.6576 125.6 23.4 3160  50
2024 11 14 16  23 35 07.816   +11 57 17.59  .87442 1.6579 125.5 23.4 3170  50
2024 11 14 17  23 35 11.707   +11 56 53.44  .87494 1.6581 125.5 23.4 3179  50
2024 11 14 18  23 35 15.599   +11 56 29.33  .87545 1.6584 125.5 23.4 3189  50
2024 11 14 19  23 35 19.491   +11 56 05.27  .87597 1.6586 125.5 23.4 3199  50
2024 11 14 20  23 35 23.383   +11 55 41.25  .87649 1.6589 125.4 23.4 3209  50
2024 11 14 21  23 35 27.276   +11 55 17.28  .87700 1.6591 125.4 23.4 3218  50
2024 11 14 22  23 35 31.169   +11 54 53.35  .87752 1.6594 125.4 23.4 3228  50
2024 11 14 23  23 35 35.063   +11 54 29.47  .87803 1.6596 125.3 23.4 3238  50
2024 11 15 00  23 35 38.957   +11 54 05.63  .87855 1.6598 125.3 23.4 3248  50
2024 11 15 01  23 35 42.851   +11 53 41.83  .87907 1.6601 125.3 23.4 3258  50
2024 11 15 02  23 35 46.746   +11 53 18.08  .87959 1.6603 125.3 23.4 3267  50
2024 11 15 03  23 35 50.642   +11 52 54.37  .88010 1.6606 125.2 23.4 3277  50
2024 11 15 04  23 35 54.537   +11 52 30.71  .88062 1.6608 125.2 23.4 3287  50
2024 11 15 05  23 35 58.434   +11 52 07.09  .88114 1.6611 125.2 23.4 3297  50
2024 11 15 06  23 36 02.330   +11 51 43.51  .88166 1.6613 125.2 23.4 3307  50
2024 11 15 07  23 36 06.227   +11 51 19.98  .88217 1.6616 125.1 23.4 3317  50
2024 11 15 08  23 36 10.125   +11 50 56.49  .88269 1.6618 125.1 23.4 3327  50
2024 11 15 09  23 36 14.023   +11 50 33.04  .88321 1.6621 125.1 23.4 3337  50
2024 11 15 10  23 36 17.921   +11 50 09.64  .88373 1.6623 125.1 23.4 3346  50
2024 11 15 11  23 36 21.820   +11 49 46.29  .88425 1.6625 125.0 23.4 3356  50
2024 11 15 12  23 36 25.719   +11 49 22.97  .88477 1.6628 125.0 23.4 3366  50
2024 11 15 13  23 36 29.619   +11 48 59.70  .88529 1.6630 125.0 23.4 3376  50
2024 11 15 14  23 36 33.519   +11 48 36.48  .88581 1.6633 125.0 23.4 3386  50
2024 11 15 15  23 36 37.419   +11 48 13.30  .88633 1.6635 124.9 23.4 3396  50
2024 11 15 16  23 36 41.320   +11 47 50.16  .88685 1.6638 124.9 23.4 3406  50
2024 11 15 17  23 36 45.221   +11 47 27.06  .88737 1.6640 124.9 23.4 3416  50
2024 11 15 18  23 36 49.123   +11 47 04.01  .88789 1.6643 124.8 23.4 3426  50
2024 11 15 19  23 36 53.025   +11 46 41.01  .88841 1.6645 124.8 23.4 3436  50